This demonstration page uses our WeatherBlox Daily Observations layout. Learn more.

Left ArrowRight Arrow

44.8408, -93.29828

Hourly Observations for September 21, 2018

Temp ( °F °C ) Dew Point ( °F °C ) Humidity (%) Winds ( mph kmh ) Pressure ( in mb ) Visibility ( mi km ) Precip ( " mm )
12:53 am 00:53 Cloudy 65 18.3 60 15.6 84 84 W 24 39 29.60 1002 10 16 0.00 0.00
1:53 am 01:53 Cloudy 63 17.2 59 15 87 87 W 17 28 29.62 1003 10 16 0.00 0.00
2:53 am 02:53 Cloudy 61 16.1 57 13.9 87 87 W 17 28 29.65 1004 10 16 0.00 0.00
3:53 am 03:53 Cloudy with Light Rain 60 15.6 55 12.8 84 84 W 18 30 29.69 1005 10 16 0.00 0.03
4:18 am 04:18 Cloudy with Light Rain 57 13.9 56 13.3 96 96 W 20 31 29.71 1006 3 4 0.00 0.03
4:28 am 04:28 Cloudy with Light Rain 57 13.9 56 13.3 96 96 W 16 26 29.71 1006 6 10 0.00 0.03
4:38 am 04:38 Cloudy with Light Rain 57 13.9 56 13.3 96 96 W 15 24 29.74 1007 7 11 0.01 0.25
4:45 am 04:45 Cloudy 57 13.9 55 12.8 93 93 W 16 26 29.71 1006 10 16 0.01 0.25
4:53 am 04:53 Mostly Cloudy 57 13.9 54 12.2 90 90 W 14 22 29.72 1007 10 16 0.01 0.25
5:05 am 05:05 Mostly Cloudy 57 13.9 54 12.2 90 90 W 17 28 29.74 1007 10 16 0.00 0.00
5:22 am 05:22 Cloudy 57 13.9 53 11.7 87 87 W 13 20 29.74 1007 10 16 0.00 0.00
5:53 am 05:53 Cloudy 56 13.3 52 11.1 87 87 W 20 31 29.75 1008 10 16 0.00 0.00
6:41 am 06:41 Cloudy with Drizzle 54 12.2 51 10.6 90 90 W 22 35 29.80 1009 9 14 0.00 0.03
6:53 am 06:53 Cloudy with Light Rain 53 11.7 51 10.6 93 93 W 24 39 29.82 1010 7 11 0.00 0.03
7:40 am 07:40 Cloudy with Drizzle 52 11.1 50 10 93 93 W 23 37 29.91 1013 9 14 0.00 0.03
7:53 am 07:53 Cloudy with Drizzle 51 10.6 50 10 96 96 W 17 28 29.89 1012 9 14 0.00 0.03
8:16 am 08:16 Cloudy with Drizzle 52 11.1 49 9.4 89 89 WNW 17 28 29.94 1014 10 16 0.00 0.03
8:40 am 08:40 Cloudy 52 11.1 49 9.4 89 89 WNW 20 31 29.94 1014 7 11 0.00 0.03
8:53 am 08:53 Cloudy 52 11.1 49 9.4 89 89 WNW 17 28 29.93 1014 10 16 0.00 0.03
9:03 am 09:03 Cloudy 52 11.1 49 9.4 89 89 WNW 16 26 29.97 1015 10 16 0.00 0.00
9:53 am 09:53 Cloudy 53 11.7 46 7.8 77 77 NW 21 33 29.99 1016 10 16 0.00 0.00
10:53 am 10:53 Cloudy 52 11.1 46 7.8 80 80 NW 16 26 30.06 1018 10 16 0.00 0.00
11:43 am 11:43 Cloudy 53 11.7 43 6.1 69 69 NW 23 37 30.12 1020 10 16 0.00 0.00
11:53 am 11:53 Cloudy 54 12.2 44 6.7 69 69 NW 16 26 30.10 1019 10 16 0.00 0.00
12:53 pm 12:53 Cloudy 53 11.7 43 6.1 69 69 NW 20 31 30.14 1021 10 16 0.00 0.00
1:53 pm 13:53 Mostly Cloudy 54 12.2 43 6.1 67 67 NW 22 35 30.16 1022 10 16 0.00 0.00
2:53 pm 14:53 Mostly Cloudy 55 12.8 42 5.6 62 62 NW 15 24 30.19 1022 10 16 0.00 0.00
3:53 pm 15:53 Mostly Cloudy 59 15 42 5.6 54 54 N 13 20 30.20 1023 10 16 0.00 0.00
4:53 pm 16:53 Mostly Cloudy 59 15 41 5 51 51 N 9 15 30.22 1024 10 16 0.00 0.00
5:53 pm 17:53 Partly Cloudy 57 13.9 42 5.6 58 58 N 10 17 30.25 1024 10 16 0.00 0.00
6:53 pm 18:53 Mostly Sunny 55 12.8 40 4.4 57 57 NNE 8 13 30.28 1026 10 16 0.00 0.00
7:53 pm 19:53 Clear 53 11.7 42 5.6 66 66 NNW 3 6 30.30 1026 10 16 0.00 0.00
8:53 pm 20:53 Clear 53 11.7 42 5.6 66 66 Calm 30.32 1027 10 16 0.00 0.00
9:53 pm 21:53 Clear 52 11.1 42 5.6 69 69 Calm 30.33 1027 10 16 0.00 0.00
10:53 pm 22:53 Clear 48 8.9 43 6.1 83 83 SSW 3 6 30.34 1027 10 16 0.00 0.00
11:53 pm 23:53 Clear 49 9.4 44 6.7 83 83 SSW 5 7 30.36 1028 10 16 0.00 0.00

Powered by AerisWeather